Wind_Speed
7 3 3 3 3 4 6 7 13 16 20 11 13 17 21 22 24 24 16 21 22 25 27 29 26 26 26 25 27 26 26 25 24 26 26 26 26 27 27 26 26 25 26 25 25 27 28 30 31
5 3 2 3 4 6 5 8 9 12 10 11 15 19 21 16 16 17 18 22 25 25 28 24 25 24 21 22 24 23 24 26 27 27 27 27 27 28 29 28 29 29 27 25 25 28 29 30 32
2 3 4 5 6 4 9 11 18 8 13 17 15 13 16 15 12 15 17 19 27 28 27 25 25 23 21 19 20 24 27 28 29 29 28 28 28 28 29 29 28 29 28 27 26 27 30 31 32
2 3 5 8 12 5 15 22 6 7 15 13 17 13 13 15 10 15 18 25 25 23 27 21 17 19 20 23 25 27 27 29 30 31 29 29 28 28 29 30 30 29 29 28 28 28 30 32 32
3 7 10 12 11 10 20 19 14 21 18 16 13 14 15 9 13 19 27 27 24 28 26 19 17 17 19 22 25 26 28 30 31 30 30 30 30 29 28 29 29 29 28 29 29 28 28 30 32
7 9 12 16 14 13 16 6 19 17 18 15 16 15 9 13 20 25 27 25 25 28 21 18 16 19 22 26 28 28 28 29 29 29 28 29 29 29 28 28 28 28 28 28 28 28 28 29 31
10 13 20 18 16 9 6 14 19 12 12 15 20 20 20 25 23 24 24 23 27 22 19 17 20 23 28 32 35 35 35 32 28 26 27 29 29 28 27 27 27 27 25 26 28 29 28 28 28
13 13 21 19 17 19 5 16 22 13 17 17 20 22 21 20 18 22 25 23 24 22 19 19 21 25 31 35 40 40 38 33 31 25 24 25 23 23 24 25 25 24 23 24 27 28 28 27 29
13 20 22 20 11 15 15 19 19 17 16 18 21 20 25 18 18 24 23 22 22 26 25 23 25 28 31 36 41 42 37 30 27 26 22 19 20 21 22 23 24 22 20 21 20 22 27 28 29
24 28 27 17 9 13 18 17 21 26 26 20 20 15 15 15 24 25 26 22 26 28 29 26 27 28 32 37 42 44 37 29 25 20 20 19 19 18 19 21 22 21 21 20 19 19 25 28 26
32 34 30 23 13 10 15 20 22 31 30 23 25 18 15 17 23 26 23 27 28 29 31 29 28 29 32 34 40 39 33 28 20 19 19 19 20 21 19 18 18 17 19 20 22 23 24 26 23
39 36 31 28 18 22 28 28 37 32 28 25 22 21 21 25 27 29 29 31 29 30 32 30 30 31 32 34 38 36 29 25 20 18 19 17 20 20 20 17 15 15 18 20 19 24 23 24 22
36 37 34 29 25 26 29 37 37 40 26 29 29 27 27 29 29 29 31 29 28 28 30 28 27 30 33 34 36 32 27 22 19 20 20 19 18 19 19 16 14 14 16 18 19 21 24 22 19
32 38 37 32 32 36 39 40 29 29 24 24 29 30 29 28 29 31 34 28 27 28 28 26 28 32 34 34 33 27 22 20 18 17 17 20 16 16 17 16 15 14 15 15 16 19 23 21 18
37 43 43 44 42 43 40 43 37 34 30 28 29 31 26 30 29 30 32 29 27 27 27 27 30 33 32 33 31 25 22 17 18 18 20 19 17 17 16 16 13 14 14 12 14 21 24 22 19
36 43 43 43 41 40 35 43 37 32 29 33 29 26 30 30 32 29 31 33 29 27 27 28 30 33 31 32 27 23 20 18 17 18 19 22 18 14 14 12 12 13 13 13 16 23 22 23 18
37 39 44 47 41 38 33 39 36 30 33 39 34 25 25 28 30 31 34 31 28 27 29 28 30 31 29 29 21 18 18 19 21 20 19 21 17 13 12 10 11 11 8 10 22 23 22 23 20
37 40 38 44 42 34 35 37 37 34 38 26 29 25 25 27 28 31 34 31 27 26 29 28 30 28 28 24 16 17 19 19 19 15 16 18 15 10 8 8 8 5 7 12 23 23 21 19 20
36 25 30 46 41 26 29 28 23 25 20 21 26 21 23 24 25 23 30 28 26 24 26 27 28 26 26 20 14 18 21 19 19 15 14 14 13 5 5 5 4 4 7 16 23 22 20 21 20
39 34 37 38 37 31 28 29 22 27 25 27 27 21 26 25 22 27 25 28 21 22 24 26 24 24 23 16 14 19 23 22 18 11 14 15 8 3 3 5 4 5 8 19 26 21 19 17 21
35 38 40 36 26 28 28 33 29 18 23 25 26 23 28 23 25 24 21 23 18 22 24 24 21 22 19 13 13 19 23 21 15 10 14 14 3 1 1 3 6 6 10 19 24 21 14 17 25
36 36 35 35 33 25 17 15 28 16 16 15 25 23 22 16 17 19 19 15 19 21 23 19 20 19 15 10 11 17 22 16 10 9 12 10 1 4 3 4 5 7 11 22 25 19 17 20 22
45 31 33 34 35 33 36 16 25 15 25 23 18 19 15 15 15 16 13 15 19 20 18 16 18 17 12 7 9 14 15 16 9 8 10 12 2 3 4 4 7 7 12 19 21 20 21 21 22
31 31 28 33 35 17 35 25 37 26 24 20 13 14 15 14 9 12 12 16 16 15 13 16 14 14 10 5 8 13 13 14 13 8 10 10 1 2 4 4 7 8 13 17 17 19 20 23 22
32 32 11 9 13 9 27 24 35 30 19 19 19 13 13 9 7 10 13 12 11 11 13 12 12 11 6 6 6 10 11 13 14 13 5 7 3 3 5 6 8 17 13 17 19 20 21 20 18
47 37 15 7 4 4 24 14 26 26 26 24 19 16 11 3 7 12 10 6 9 10 9 9 10 8 4 4 6 9 8 12 13 19 5 6 6 5 7 9 9 14 16 15 15 17 18 19 20
42 50 43 24 16 3 16 20 29 31 20 13 20 15 8 5 10 7 4 7 7 5 6 7 7 4 3 3 6 7 7 12 14 15 9 10 8 6 8 8 12 12 13 14 16 18 21 21 21
49 20 35 30 8 7 5 11 18 12 18 21 20 11 7 8 8 5 3 9 3 4 4 7 7 3 3 3 5 5 5 11 15 13 12 11 8 8 6 8 10 11 12 15 15 17 18 19 22
42 48 28 30 31 8 5 19 25 17 20 23 16 11 9 10 4 5 3 6 3 3 3 5 6 3 3 3 3 3 5 8 14 9 8 8 11 9 9 9 7 13 10 13 14 15 19 22 21
45 38 45 31 16 28 25 24 19 15 27 23 15 13 14 7 3 4 2 4 3 2 3 4 5 3 1 4 4 3 4 8 15 12 7 5 10 7 11 9 11 12 13 15 18 20 20 18 16
Wind_Direction
123 123 143 182 263 236 277 329 2 295 298 309 303 310 310 302 291 294 309 312 315 317 320 307 307 309 305 300 302 303 305 304 300 297 296 295 293 290 287 281 274 267 259 251 245 240 239 235 235
118 146 219 254 213 257 310 309 309 321 338 316 299 308 309 298 294 309 308 309 315 316 321 317 310 304 297 295 300 307 308 304 301 297 294 292 290 290 288 283 278 271 265 256 251 245 239 237 234
155 224 258 249 237 276 305 308 294 336 306 302 292 286 287 285 288 300 304 308 316 322 324 317 315 317 320 319 316 311 310 306 301 298 295 291 291 288 283 280 277 274 269 263 255 249 245 239 235
212 217 245 266 261 310 319 329 249 330 298 309 277 247 256 281 297 302 307 313 322 319 317 323 329 332 328 325 322 317 311 307 305 302 296 292 289 284 280 279 275 270 267 263 259 250 245 244 238
218 252 258 281 279 308 324 322 290 289 288 271 257 257 273 290 310 314 311 317 321 315 320 324 330 343 341 333 325 317 313 310 306 299 297 294 290 284 282 280 275 272 268 264 259 253 248 245 244
225 231 258 267 283 294 319 296 316 302 296 303 282 281 257 291 310 320 320 319 316 314 317 322 333 334 336 339 330 321 316 312 307 302 298 293 291 288 286 281 277 272 269 264 259 253 248 245 246
250 244 264 277 286 301 323 341 357 1 309 285 290 284 294 301 315 310 310 307 314 313 318 317 331 331 335 337 335 328 324 319 311 306 300 295 289 286 284 284 282 279 274 266 259 249 244 239 243
265 249 259 265 280 290 291 307 327 298 294 281 287 279 312 312 303 300 301 303 311 305 317 322 331 332 334 330 331 327 323 320 312 309 297 292 288 287 285 283 277 274 270 265 254 247 240 235 237
243 235 256 277 287 294 280 310 311 305 312 305 287 283 293 291 280 291 302 305 301 307 311 330 338 337 330 323 323 322 320 317 313 308 298 291 291 288 284 279 276 268 264 262 259 247 235 230 234
238 237 266 284 292 300 305 305 304 301 308 298 296 291 282 287 309 305 305 300 299 309 319 327 333 331 322 316 319 318 317 318 312 308 306 298 291 280 275 274 270 266 264 262 254 255 234 228 230
256 242 283 268 273 277 280 287 301 293 299 302 289 285 291 305 306 307 299 297 300 313 315 320 325 318 305 308 312 316 316 317 312 308 304 300 297 293 287 273 263 266 269 264 255 236 233 225 227
248 257 261 266 263 268 274 285 293 279 292 292 281 287 292 297 298 301 302 303 305 311 310 311 309 301 302 307 313 317 316 315 315 309 299 302 300 292 285 271 271 281 280 265 256 235 228 218 221
247 262 263 264 266 266 279 279 283 281 274 285 277 281 289 292 295 299 298 307 319 318 313 305 301 301 304 308 318 316 311 314 311 310 305 306 298 282 280 268 271 280 285 261 253 230 220 206 210
267 271 262 254 256 270 275 276 277 273 273 283 262 280 283 283 293 294 294 305 309 316 319 307 303 303 303 309 317 314 314 318 312 306 308 307 297 275 274 263 267 285 295 252 238 217 202 195 199
252 253 250 248 254 262 263 273 270 268 275 270 276 277 282 279 285 293 293 297 297 312 316 310 305 300 304 313 317 316 319 319 309 308 311 313 297 274 273 264 270 284 292 240 224 192 188 187 193
251 245 255 248 250 253 258 273 265 261 267 270 262 266 276 286 273 288 292 288 287 303 307 310 306 299 306 315 318 322 326 317 314 315 316 325 308 273 268 264 273 282 282 229 203 185 183 182 186
248 254 251 256 250 256 262 268 262 264 271 271 259 266 271 275 268 277 279 275 285 294 299 304 302 302 307 315 319 332 327 316 313 309 320 324 310 283 271 258 268 288 257 216 186 179 180 187 188
239 243 251 255 253 253 257 264 262 276 271 265 254 264 271 266 276 272 274 273 285 289 298 300 302 301 307 313 321 335 336 325 316 311 325 326 318 292 243 250 270 271 219 183 175 174 177 177 182
241 246 255 252 260 261 270 285 272 272 253 257 266 269 266 264 274 282 273 268 277 289 301 301 299 297 309 308 318 334 340 328 325 309 322 329 323 293 220 243 251 247 192 186 173 168 175 179 183
238 242 251 262 255 254 260 271 282 273 257 257 264 272 283 272 267 271 275 269 274 293 299 297 295 300 307 307 319 332 337 331 324 316 321 329 319 298 235 224 237 178 179 170 169 172 182 182 191
236 236 246 255 260 251 267 276 276 266 250 252 260 284 287 259 267 267 275 266 280 294 293 297 292 303 303 309 324 335 341 335 328 318 333 337 261 213 218 194 189 170 165 169 168 162 156 177 168
235 235 241 255 263 263 260 270 280 263 274 267 277 282 296 262 257 265 257 270 288 289 294 295 293 302 304 307 331 341 344 345 344 339 3 13 214 124 114 159 153 159 167 174 184 181 179 175 179
237 239 235 244 258 260 267 268 276 269 282 284 288 283 256 266 270 265 253 290 284 293 297 287 294 303 306 317 329 349 357 3 12 3 17 18 159 109 112 132 149 158 166 170 180 181 178 177 177
239 233 243 245 257 249 258 267 280 272 280 286 268 281 260 256 256 247 275 289 298 298 284 289 295 303 312 327 337 2 2 9 13 352 15 20 353 163 144 159 152 173 150 156 170 168 173 175 176
225 226 233 259 228 226 257 258 258 272 268 268 274 242 221 231 236 262 297 306 299 281 289 288 302 304 332 347 354 8 15 14 19 14 345 1 40 111 139 154 137 143 157 148 153 160 171 171 171
215 215 206 198 200 204 247 218 246 255 277 276 246 228 244 279 328 299 294 301 296 285 275 303 312 311 336 343 6 10 9 14 17 12 32 18 99 106 142 152 146 150 154 158 164 166 167 174 172
214 221 220 239 234 218 213 234 258 265 265 227 200 221 251 278 297 283 262 341 296 256 284 318 333 330 337 350 16 8 6 17 13 6 57 73 91 111 106 145 160 160 154 157 164 170 170 170 168
215 212 211 224 204 224 261 221 236 220 209 210 213 221 258 261 282 261 260 347 250 258 292 335 356 347 344 17 14 14 25 29 24 44 58 73 102 94 126 127 143 162 165 161 163 165 166 166 163
211 225 221 221 223 192 208 247 249 257 233 225 213 250 243 249 290 248 230 335 222 262 302 340 354 341 359 51 38 33 46 33 31 61 63 76 117 95 85 132 127 156 173 156 149 157 153 156 154
211 214 220 220 208 217 224 240 242 253 237 214 231 217 221 232 308 229 219 301 218 247 299 336 345 319 351 64 65 62 63 47 39 75 93 74 96 99 108 124 158 151 152 156 154 157 154 154 163
Height
3182 3182 3183 3184 3188 3182 3180 3180 3179 3178 3176 3174 3172 3171 3170 3169 3168 3169 3166 3165 3164 3164 3162 3159 3156 3153 3151 3149 3147 3144 3143 3141 3138 3137 3136 3135 3133 3131 3130 3131 3132 3132 3133 3135 3135 3136 3136 3138 3140
3180 3181 3182 3183 3183 3181 3179 3178 3176 3176 3174 3172 3168 3166 3167 3167 3166 3164 3164 3163 3161 3160 3159 3156 3153 3150 3148 3145 3143 3142 3140 3137 3136 3133 3131 3129 3129 3127 3124 3124 3124 3126 3127 3128 3129 3130 3131 3132 3135
3179 3180 3181 3181 3179 3177 3176 3175 3177 3173 3172 3170 3167 3164 3163 3163 3164 3163 3162 3161 3159 3157 3155 3152 3149 3145 3142 3141 3140 3137 3135 3133 3131 3129 3126 3125 3123 3121 3120 3119 3119 3119 3119 3121 3123 3124 3125 3127 3129
3179 3180 3181 3177 3175 3175 3174 3173 3171 3171 3171 3168 3165 3162 3160 3161 3162 3160 3157 3157 3155 3153 3152 3151 3148 3144 3141 3138 3136 3134 3131 3128 3125 3123 3120 3119 3117 3117 3115 3114 3113 3114 3113 3114 3116 3118 3120 3121 3123
3179 3179 3177 3173 3172 3172 3173 3172 3172 3169 3168 3164 3163 3162 3160 3158 3158 3156 3153 3153 3152 3149 3148 3148 3146 3143 3140 3137 3133 3130 3127 3124 3120 3117 3114 3112 3111 3110 3109 3108 3108 3108 3108 3109 3110 3112 3113 3115 3116
3176 3177 3175 3172 3169 3169 3171 3171 3170 3167 3165 3161 3162 3159 3158 3158 3157 3155 3153 3150 3148 3147 3146 3145 3143 3141 3137 3135 3132 3129 3125 3120 3115 3112 3109 3106 3104 3102 3101 3100 3100 3101 3102 3102 3103 3104 3107 3109 3110
3174 3175 3172 3171 3167 3165 3168 3168 3168 3164 3162 3161 3159 3156 3155 3154 3154 3153 3150 3148 3146 3145 3144 3142 3140 3138 3133 3128 3125 3123 3118 3114 3110 3106 3103 3100 3098 3096 3095 3094 3093 3093 3094 3095 3096 3098 3100 3103 3105
3171 3172 3170 3168 3167 3163 3164 3164 3166 3163 3161 3161 3157 3154 3152 3152 3150 3149 3149 3147 3145 3142 3142 3140 3137 3133 3128 3123 3120 3117 3113 3109 3104 3101 3098 3096 3094 3091 3090 3089 3088 3088 3089 3089 3090 3092 3095 3098 3100
3168 3167 3166 3164 3164 3161 3160 3160 3162 3162 3159 3157 3155 3151 3152 3150 3148 3147 3145 3143 3140 3137 3137 3136 3131 3127 3123 3119 3116 3113 3109 3106 3100 3095 3093 3092 3089 3087 3085 3084 3083 3083 3084 3084 3085 3086 3089 3092 3095
3161 3158 3159 3161 3159 3157 3156 3157 3158 3158 3156 3153 3149 3149 3148 3146 3144 3143 3142 3141 3138 3136 3132 3130 3127 3123 3119 3117 3113 3108 3104 3100 3096 3092 3088 3086 3085 3083 3082 3080 3079 3078 3079 3078 3079 3081 3083 3086 3090
3154 3152 3153 3155 3154 3154 3153 3152 3153 3153 3152 3150 3147 3145 3143 3142 3140 3139 3138 3137 3135 3131 3128 3126 3122 3120 3121 3118 3113 3106 3099 3095 3092 3088 3085 3083 3080 3078 3076 3075 3075 3074 3074 3073 3074 3076 3078 3082 3087
3146 3147 3148 3149 3149 3149 3148 3149 3148 3150 3147 3145 3143 3141 3139 3139 3137 3137 3135 3132 3129 3127 3126 3124 3121 3121 3119 3115 3108 3102 3096 3090 3086 3084 3081 3079 3076 3074 3072 3071 3070 3069 3069 3069 3069 3071 3074 3078 3083
3140 3142 3142 3143 3144 3144 3144 3143 3143 3143 3144 3142 3140 3136 3135 3135 3135 3134 3131 3130 3127 3125 3123 3121 3120 3117 3114 3110 3103 3097 3092 3088 3083 3080 3077 3075 3073 3069 3068 3067 3066 3065 3065 3064 3065 3066 3070 3075 3080
3137 3135 3134 3137 3137 3139 3139 3136 3138 3138 3139 3137 3135 3134 3132 3131 3131 3130 3126 3126 3125 3124 3122 3118 3115 3113 3109 3105 3099 3094 3089 3084 3081 3078 3074 3071 3068 3066 3064 3063 3062 3062 3062 3061 3060 3062 3068 3072 3076
3130 3126 3125 3127 3130 3130 3134 3128 3128 3133 3134 3133 3130 3130 3128 3127 3126 3123 3121 3121 3120 3119 3118 3115 3111 3108 3105 3099 3094 3089 3084 3081 3078 3074 3071 3067 3064 3062 3061 3060 3059 3059 3058 3057 3057 3060 3065 3070 3073
3122 3121 3116 3120 3125 3124 3131 3118 3123 3127 3128 3127 3126 3125 3123 3122 3120 3119 3117 3116 3116 3116 3114 3111 3107 3104 3099 3094 3090 3085 3080 3077 3074 3070 3066 3062 3060 3058 3057 3055 3055 3055 3054 3053 3055 3059 3065 3069 3072
3114 3111 3110 3111 3118 3119 3123 3116 3117 3120 3120 3119 3120 3121 3120 3118 3116 3115 3113 3112 3113 3112 3109 3107 3103 3100 3095 3091 3086 3082 3078 3074 3070 3066 3063 3058 3055 3053 3053 3052 3052 3052 3051 3050 3053 3059 3064 3068 3072
3104 3105 3106 3104 3107 3116 3115 3113 3113 3114 3112 3112 3114 3115 3113 3111 3112 3111 3110 3110 3109 3107 3106 3103 3099 3096 3092 3087 3083 3079 3076 3071 3067 3063 3059 3056 3052 3050 3051 3050 3050 3050 3049 3050 3054 3059 3064 3068 3072
3101 3103 3103 3099 3101 3112 3109 3108 3107 3106 3105 3107 3108 3108 3107 3107 3108 3107 3107 3107 3105 3104 3102 3098 3095 3092 3088 3084 3080 3077 3073 3068 3064 3060 3058 3054 3050 3049 3049 3049 3049 3048 3049 3052 3056 3060 3064 3068 3071
3097 3099 3097 3093 3097 3107 3105 3103 3101 3102 3101 3102 3102 3103 3102 3102 3102 3102 3102 3102 3102 3101 3098 3095 3091 3089 3085 3080 3078 3075 3070 3065 3061 3058 3055 3052 3050 3049 3048 3048 3048 3048 3050 3051 3056 3061 3064 3068 3071
3090 3093 3091 3092 3095 3100 3102 3098 3098 3096 3095 3097 3099 3098 3098 3097 3097 3098 3097 3098 3098 3097 3094 3091 3087 3085 3081 3077 3076 3073 3067 3062 3059 3056 3053 3050 3048 3049 3048 3048 3048 3048 3050 3054 3058 3061 3065 3067 3071
3082 3085 3091 3092 3095 3093 3096 3093 3092 3092 3092 3093 3093 3093 3092 3092 3092 3093 3093 3095 3094 3093 3090 3087 3084 3082 3078 3076 3074 3071 3066 3062 3058 3056 3053 3049 3049 3048 3049 3048 3049 3049 3051 3055 3058 3062 3065 3069 3073
3071 3085 3088 3090 3089 3092 3086 3092 3086 3086 3086 3087 3087 3088 3087 3088 3088 3089 3090 3092 3091 3089 3086 3083 3081 3078 3075 3074 3073 3070 3066 3062 3058 3056 3053 3051 3050 3049 3049 3049 3049 3051 3053 3056 3059 3062 3065 3069 3073
3074 3082 3084 3085 3086 3084 3083 3086 3076 3080 3082 3082 3083 3083 3084 3085 3086 3087 3088 3088 3087 3084 3082 3080 3078 3074 3073 3073 3072 3069 3066 3062 3059 3056 3054 3053 3051 3050 3050 3051 3052 3053 3054 3057 3060 3063 3066 3070 3074
3070 3076 3080 3081 3077 3076 3079 3081 3073 3075 3077 3078 3079 3080 3082 3083 3085 3086 3086 3084 3083 3081 3079 3078 3075 3072 3072 3071 3070 3068 3066 3063 3060 3056 3054 3052 3051 3051 3051 3052 3053 3054 3057 3059 3062 3064 3067 3071 3075
3058 3065 3066 3074 3072 3072 3077 3071 3068 3070 3073 3072 3075 3077 3079 3081 3082 3083 3082 3082 3080 3078 3077 3075 3073 3071 3071 3070 3069 3068 3066 3063 3060 3056 3054 3051 3051 3051 3052 3054 3055 3057 3059 3060 3063 3065 3068 3072 3075
3049 3050 3060 3066 3065 3066 3066 3066 3064 3065 3067 3068 3071 3074 3076 3078 3080 3080 3079 3079 3077 3076 3075 3074 3072 3071 3069 3069 3069 3067 3066 3064 3060 3057 3055 3053 3053 3053 3054 3055 3056 3059 3061 3063 3064 3067 3069 3073 3077
3035 3049 3058 3059 3064 3067 3061 3060 3061 3062 3064 3065 3067 3072 3074 3076 3077 3077 3077 3077 3075 3074 3073 3072 3071 3069 3069 3069 3068 3067 3066 3064 3062 3058 3056 3055 3055 3055 3055 3057 3058 3060 3063 3065 3067 3069 3072 3075 3079
3033 3039 3047 3053 3053 3055 3061 3055 3059 3060 3061 3063 3066 3069 3071 3074 3075 3075 3075 3075 3074 3073 3072 3071 3070 3069 3069 3069 3069 3068 3066 3065 3063 3061 3058 3057 3057 3057 3058 3059 3060 3062 3065 3067 3069 3072 3075 3078 3082
3026 3030 3036 3039 3042 3045 3048 3048 3055 3056 3056 3061 3064 3067 3070 3072 3073 3073 3073 3074 3073 3072 3071 3071 3070 3069 3069 3069 3069 3068 3068 3067 3065 3063 3061 3059 3059 3059 3060 3061 3063 3064 3067 3069 3072 3075 3078 3081 3085